Location: Saratoga Springs
(43.0831°N, 73.7850°W)
Time: 15:44:01
(UTC-04:00)

Explorer 11/Cluster Stage 4 - All Passes

Search period start: 19 April 2024 00:00
Search period end: 29 April 2024 00:00
Orbit: 465 x 1220 km, 28.8° (Epoch: 18 April)

Date Brightness Start Highest point End Pass type
(mag) Time Alt. Az. Time Alt. Az. Time Alt. Az.
19 Apr - 03:29:18 10° SW 03:32:58 19° S 03:37:08 10° SE visible
19 Apr - 05:16:15 10° SW 05:20:23 19° S 05:25:01 10° SE visible
19 Apr - 07:05:47 10° SW 07:07:53 11° SSW 07:10:05 10° S daylight
20 Apr - 03:12:18 10° SW 03:15:40 18° S 03:19:28 10° SE visible
20 Apr - 04:59:19 10° SW 05:03:01 17° S 05:07:10 10° SSE visible
21 Apr - 02:55:21 10° SSW 02:58:23 16° S 03:01:47 10° SE visible
21 Apr - 04:42:28 10° SW 04:45:40 16° S 04:49:14 10° SSE visible
22 Apr - 02:38:24 10° SSW 02:41:06 15° S 02:44:05 10° SE visible
22 Apr - 04:25:42 10° SW 04:28:21 14° S 04:31:13 10° SSE visible
23 Apr - 02:21:30 10° SSW 02:23:50 14° S 02:26:22 10° SE night (unlit)
23 Apr - 04:09:07 10° SSW 04:11:01 12° S 04:13:03 10° SSE visible
24 Apr - 02:04:38 10° SSW 02:06:33 13° S 02:08:37 10° SSE night (unlit)
24 Apr - 03:53:10 10° SSW 03:53:43 10° S 03:54:15 10° S visible
25 Apr - 01:47:52 10° SSW 01:49:18 12° S 01:50:48 10° SSE night (unlit)
26 Apr - 01:31:18 10° SSW 01:32:02 10° S 01:32:47 10° S night (unlit)
